Regional Weather Roundup
Issued by NWS Green Bay, WI

Home | Current Version | Previous Version | Text Only | Print | Product List | Glossary On
Versions: 1 2 3 4 5 6 7 8 9 10 11 12 13 14 15 16 17 18 19 20 21 22 23 24 25 26 27 28 29 30 31 32 33 34 35 36 37 38 39 40 41 42 43 44 45 46 47 48 49 50
000
ASUS43 KGRB 211900
RWRGRB

NORTH-CENTRAL AND NORTHEAST WISCONSIN REGIONAL WEATHER ROUNDUP
NATIONAL WEATHER SERVICE GREEN BAY WI
100 PM CST SAT JAN 21 2017

WIZ005-009-010>012-018-019-212000-
NORTH CENTRAL WISCONSIN

CITY           SKY/WX    TMP DP  RH WIND       PRES   REMARKS
IRONWOOD       LGT RAIN  37  35  92 E5        29.45F
MANITOWISH WTR NOT AVBL
ARBOR VITAE    NOT AVBL
EAGLE RIVER    NOT AVBL
LAND O LAKES   NOT AVBL
RHINELANDER    LGT RAIN  36  36 100 E12       29.43F VSB 1/2
PHILLIPS       CLOUDY    35  35 100 E6        29.41F FOG
ANTIGO         NOT AVBL
TOMAHAWK       NOT AVBL
MERRILL        FOG       37  37 100 SE7         N/A  VSB 1
$$

WIZ013-073-212000-
NORTHEAST WISCONSIN

CITY           SKY/WX    TMP DP  RH WIND       PRES   REMARKS
IRON MOUNTAIN  FOG       35  33  92 E5        29.48F VSB 1/4
MARINETTE      NOT AVBL
$$

WIZ017-030-035>037-045-212000-
CENTRAL WISCONSIN

CITY           SKY/WX    TMP DP  RH WIND       PRES   REMARKS
MEDFORD        NOT AVBL
WAUSAU         FOG       35  35 100 CALM      29.40F VSB 1/2
MOSINEE        FOG       36  36 100 CALM      29.43F VSB 1/8
MARSHFIELD     FOG       35  35 100 SE6       29.40F VSB<1/4
WISC RAPIDS    FOG       37  37 100 E5        29.42F VSB 1/4
STEVENS POINT  NOT AVBL
WAUPACA        NOT AVBL
SHAWANO        NOT AVBL
CLINTONVILLE   FOG       36  36 100 E8        29.44F VSB 1/4
WAUTOMA        FOG       38  38 100 NE3       29.42F VSB 1/4
$$

WIZ038-039-048-051-212000-
FOX VALLEY

CITY           SKY/WX    TMP DP  RH WIND       PRES   REMARKS
NWS GREEN BAY  FOG       37  37 100 NE8       29.45F VSB<1/4
APPLETON       FOG       37  37 100 E7        29.43F VSB 1/8
OSHKOSH        FOG       38  37  97 NE3       29.42F VSB 1/4
FOND DU LAC    CLOUDY    44  40  85 SE6       29.42F
$$

WIZ022-050-052-212000-
EAST CENTRAL WISCONSIN

CITY           SKY/WX    TMP DP  RH WIND       PRES   REMARKS
EPHRAIM        NOT AVBL
WASHINGTON ISL NOT AVBL
STURGEON BAY   LGT RAIN  39  38  96 E3        29.49F VSB 1/4
MANITOWOC      NOT AVBL
SHEBOYGAN      FOG       42  42 100 S7        29.44F VSB 1/4
$$

LMZ563-521-522-541>543-212000-
LAKESHORE

STATION/POSITION TIME  TEMP    WIND        PRES    VSBY  WAVE
                       AIR SEA DIR/SP/G                  HT/PER
                 (UTC) (F)     (DEG/KT/KT) (MB)    (MI)  (FT/S)
SHEBOYGAN LKSHOR 1800   40     150/  7/  7  998.2F
KEWAUNEE LKSHORE 1830   38      CALM  /  1  998.3F
NORTHPORT PIER   1840   35      70/  7/  9  999.7F
SISTER BAY LKSHO 1820   38     120/  7/ 12   N/A
$$




USA.gov is the U.S. government's official web portal to all federal, state and local government web resources and services.